www.pogodaiklimat.ru

Погода и климат >> Архив погоды >> Мексика >> Campeche


ПОГОДА в Campeche

  • Прогноз погоды в Campeche
  • Монитор погоды в Campeche
  • Климат города

АРХИВ ПОГОДЫ в Campeche

Время (UTC), дата Ветер
(напр.,м/с)
 
Видим.   Явления Облачность Т
(С)
Тd
(С)
f
(%)
Тe
(С)
Тes
(С)
Комфортность P
(гПа)
Po
(гПа)
Тmin
(С)
Tmax
(С)
R
(мм)
R24
(мм)
S
(см)
00 9.12 ЮВ 1 6000 м ясно +27.4 +25.5 89 +40 +40 очень
душно
1013.3 1012.7 +22.0 +33.0
03 9.12 Ю 1 6000 м ясно +23.8 +22.7 94 +31 +31 очень
душно
1015.1 1014.6
12 9.12 штиль 0 8000 м ясно +22.2 +21.6 96 +29 +29 очень
душно
1016.0 1015.5 +21.7 +33.0
15 9.12 штиль 0 10 км ясно +25.7 +23.9 90 +35 +42 очень
душно
1018.0 1017.5
18 9.12 СЗ 2 10 км 4/4 540 м
[Cu med, cong]
+28.5 +25.7 85 +42 +49 опасность
перегрева
1017.2 1016.6 +21.7 +29.2
21 9.12 СЗ 2 10 км 6/6 660 м
[Cu med, cong]
+27.6 +25.2 87 +40 +42 очень
душно
1015.5 1014.9
00 10.12 С 5 6000 м 9/9 300 м
[Sc]
+25.9 +23.4 86 +35 +35 очень
душно
1016.5 1016.0 +21.7 +29.2
03 10.12 С 4 6000 м 9/9 450 м
[St]
+24.4 +21.3 83 +31 +31 очень
душно
1019.2 1018.6
06 10.12 С 3 6000 м 6/3 450 м
[St Ac und]
+23.3 +21.3 89 +31 +31 очень
душно
1019.4 1018.9 +21.7 +29.2
12 10.12 С 2 6000 м 8/0
[As op]
+22.2 +21.9 98 +29 +29 очень
душно
1020.0 1019.4 +22.2 +29.2
15 10.12 С 3 10 км в посл. час морось 10/4 500 м
[Sc As op]
+23.4 +20.2 82 +31 +31 очень
душно
1022.5 1021.9 0.0
18 10.12 С 3 10 км 9/0
[Ac und]
+25.4 +21.1 77 +32 +36 очень
душно
1021.8 1021.2 +22.2 +25.6 0.0
21 10.12 С 4 10 км 4/1 900 м
[Cu hum Ac trans]
+25.8 +20.8 74 +32 +35 очень
душно
1020.0 1019.4
00 11.12 С 4 6000 м 9/0
[Ac As]
+23.5 +18.9 75 +28 +28 душно 1022.2 1021.6 +21.6 +25.9
03 11.12 С 3 6000 м 8/0
[Ac trans]
+22.1 +21.3 95 +29 +29 очень
душно
1024.3 1023.7
06 11.12 СВ 2 6000 м 6/0
[Ac trans]
+20.5 +18.1 86 +25 +25 комфорт 1024.4 1023.8 +21.6 +25.9
12 11.12 СВ 1 6000 м 5/0
[Ac trans]
+19.9 +18.2 90 +24 +24 комфорт 1024.7 1024.1 +19.7 +25.9
15 11.12 СВ 3 10 км 9/0
[Ac und]
+22.4 +18.2 77 +28 +29 душно 1026.4 1025.8
18 11.12 СВ 3 10 км 1/0
[Ac trans]
+25.7 +19.7 69 +31 +40 очень
душно
1024.6 1024.0 +19.6 +25.8
21 11.12 С 4 10 км 4/3 750 м
[Cu hum Ci fib]
+25.9 +19.8 69 +32 +34 очень
душно
1022.0 1021.4
00 12.12 СВ 2 6000 м 1/0
[Ci fib]
+23.0 +17.9 73 +28 +28 душно 1022.4 1021.8 +19.6 +25.9
03 12.12 СВ 2 6000 м ясно +19.6 +16.2 81 +22 +22 комфорт 1024.2 1023.6
06 12.12 ЮВ 1 6000 м ясно +16.2 +14.9 92 +17 +17 1023.4 1022.8 +15.7 +25.9
15 12.12 В 1 10 км ясно +19.0 +14.9 77 +21 +27 комфорт 1022.1 1021.5
18 12.12 В 2 10 км ясно +25.4 +19.3 69 +31 +42 очень
душно
1019.7 1019.2 +12.0 +25.6
21 12.12 З 2 10 км ясно +25.8 +21.6 78 +33 +38 очень
душно
1017.2 1016.6
00 13.12 СЗ 1 6000 м ясно +22.7 +19.9 84 +29 +29 очень
душно
1016.8 1016.2 +12.0 +28.0
06 13.12 штиль 0 6000 м ясно +16.5 +16.2 98 +16 +16 1016.1 1015.5 +12.0 +28.0
09 13.12 ЮВ 1 6000 м ясно +15.3 +15.2 99 +16 +16 1014.4 1013.8
12 13.12 Ю 1 6000 м 4/0
[Ac trans]
+16.8 +16.3 97 +18 +18 1013.8 1013.2 +15.5 +28.0
15 13.12 ЮВ 2 10 км 1/0
[Ac trans]
+24.6 +20.6 78 +31 +35 очень
душно
1014.2 1013.6
18 13.12 ЮВ 3 10 км 1/0
[Ci fib]
+30.8 +25.2 72 +45 +54 опасность
перегрева
1010.7 1010.2 +15.5 +31.2
21 13.12 ЮВ 2 10 км 5/0
[Ci fib]
+33.0 +28.2 76 +54 +59 опасность
перегрева
1008.2 1007.6
00 14.12 штиль 0 6000 м 4/0
[Ci fib]
+28.2 +24.7 81 +40 +40 очень
душно
1008.9 1008.4 +15.5 +33.3
03 14.12 В 2 6000 м ясно +25.4 +22.0 81 +33 +33 очень
душно
1011.1 1010.5
06 14.12 ЮВ 1 6000 м ясно +22.0 +20.7 92 +28 +28 душно 1012.0 1011.4 +15.5 +33.0
09 14.12 ЮВ 1 6000 м 5/0
[Ac trans]
+20.7 +20.3 98 +27 +27 душно 1011.3 1010.7
12 14.12 ЮВ 1 6000 м 5/0
[Ac trans]
+20.0 +19.7 98 +25 +25 комфорт 1012.2 1011.6 +19.8 +33.3
15 14.12 ЮВ 1 10 км 5/0
[Ac trans Cs]
+25.0 +23.1 89 +33 +38 очень
душно
1014.6 1014.0
18 14.12 З 2 10 км 3/0
[Ac trans]
+28.4 +24.3 78 +40 +49 очень
душно
1014.4 1013.8 +19.6 +30.8
03 15.12 С 5 6000 м 10/10 500 м
[Sc]
+23.4 +19.3 78 +30 +30 очень
душно
1019.1 1018.6
06 15.12 СЗ 4 6000 м 10/10 500 м
[Sc]
+23.2 +18.4 74 +29 +29 душно 1020.0 1019.4 +19.6 +31.0
09 15.12 СЗ 3 6000 м 10/10 500 м
[Sc]
+22.5 +18.5 78 +28 +28 душно 1019.6 1019.0
12 15.12 СЗ 3 6000 м 10/10 500 м
[Sc]
+22.3 +18.6 80 +28 +28 душно 1020.5 1019.9 +22.0 +31.0
15 15.12 СЗ 3 10 км 3/0
[Ac trans]
+24.0 +18.4 71 +28 +32 душно 1022.6 1022.0
18 15.12 СЗ 4 10 км 4/4 720 м
[Frnb]
+25.6 +19.2 68 +31 +36 очень
душно
1022.4 1021.8 +22.0 +26.5
21 15.12 СЗ 3 10 км 1/1 840 м
[Cu med, cong]
+25.0 +20.1 74 +31 +35 очень
душно
1020.7 1020.1

 

Местоположение метеостанции Campeche (Мексика): широта 19.85 долгота -90.55 высота над уровнем моря 5 м.

В архиве по умолчанию представлена погода в Campeche за последнюю неделю. Архивные данные за месяц целиком и за предыдущие месяцы, начиная с января 2011 года, Вы можете получить, выбрав интересующий диапазон дат из раскрывающегося списка и нажав кнопку "Ввод!".


*Определитесь, кто Вы:
робот инопланетянин человек

Внимание! Время в таблицах - всемирное. Для получения местного времени необходимо прибавить поправку, которая в Campeche равна -6 ч.

Смотрите также архив погоды в соседних городах и на ближайших метеорологических станциях:

Погода в Merida 2 (Мексика) (156 км)
Погода в Merida (Мексика) (157 км)
Погода в Progreso (Мексика) (187 км)
Погода в Valladolid (Мексика) (262 км)
Погода в Felipe Carrillo Puerto (Мексика) (278 км)
Погода в Chetumal (Мексика) (281 км)
Погода в Villahermosa (Мексика) (326 км)
Погода в Flores (Гватемала) (333 км)
Погода в Belize (Белиз) (350 км)
Погода в Sn. Cristobal Las Casas (Мексика) (409 км)

Пояснения к столбцам:

Ветер - указаны скорость ветра в м/с - средняя за 10 мин, порывы в срок и между сроками (в фигурных скобках) и направление, откуда дует ветер: С - северный, СВ - северо-восточный, В - восточный, ЮВ - юго-восточный, Ю - южный, ЮЗ - юго-западный, З - западный, СЗ - северо-западный.
Видимость - горизонтальная дальность видимости в метрах или километрах. При видимости от 1 до 10 км при отсутствии осадков обычно наблюдается дымка, при ухудшении видимости до 1 км и менее - туман. В сухую погоду видимость может ухудшаться дымом, пылью или мглою.
Явления - указаны атмосферные явления, наблюдавшиеся в срок или в последний час перед сроком; фигурными скобками обозначены явления, наблюдавшиеся между сроками (за 1-3 часа до срока); квадратными скобками обозначены град или гололедные отложения с указанием их диаметра в мм.
Облачность - указаны через наклонную черту общая и нижняя облачность в баллах и высота нижней границы облаков в метрах; квадратными скобками обозначены формы облаков: Ci - перистые, Cs - перисто-слоистые, Cc - перисто-кучевые, Ac - высококучевые, As - высокослоистые, Sc - слоисто-кучевые, Ns - слоисто-дождевые, Cu - кучевые, Cb - кучево-дождевые. Подробнее классификацию облаков см. в Атласе облаков (PDF).
T - Температура воздуха - температура, измеренная на высоте 2 м над землей.
Td - Температура точки росы - температура, при понижении до которой содержащийся в воздухе водяной пар достигнет насыщения.
f - Относительная влажность воздуха - влажноcть воздуха, измеренная на высоте 2 м над землей.
Te - Эффективная температура - температура, которую ощущает одетый по сезону человек в тени. Характеристика душности погоды. При расчете учитывается влияние влажности воздуха и скорости ветра на теплоощущения человека.
Tes - Эффективная температура на солнце - температура, которую ощущает человек, с поправкой на солнечный нагрев. Характеристика знойности погоды. Зависит от высоты солнца над горизонтом, облачности и скорости ветра. Ночью, в пасмурную погоду, а также при ветре 12 м/с и более поправка равна нулю.
P - Атмосферное давление - приведенное к уровню моря атмосферное давление.
Po - Атмосферное давление - измеренное на уровне метеостанции атмосферное давление.
Tmin - Минимальная температура - минимум температуры воздуха на высоте 2 м над землей.
Tmax - Максимальная температура - максимум температуры воздуха на высоте 2 м над землей.
R - Количество осадков - Количество выпавших осадков за период времени, мм. При наведении курсора мыши на число - период времени, за который выпало указанное количество осадков.
R24 - Количество осадков - Количество выпавших осадков за 24 часа, мм.
S - Снежный покров - Высота снежного покрова, см. При наведении курсора мыши на число - состояние снежного покрова и степень покрытия местности в баллах.